#timestamp,LO_Frequency,Hit,StdDev 
1622764815.3,286046996.8,N
1622764835.1,286046999.4,N
1622764855.8,286046999.1,N
1622764875.7,286046997.7,N
1622764895.5,286046997.3,N
1622764915.4,286046996.1,N
1622764935.2,286046994.0,N
1622764955.0,286046993.7,N
1622764955.9,286046993.7,N
1622764975.8,286046994.9,N
1622764995.6,286046995.9,N
1622765015.5,286046996.0,N
1622765035.3,286046999.3,N
1622765055.1,286047000.7,N
1622765075.9,286047000.0,N
1622765095.7,286046998.9,N
1622765115.5,286046999.4,N
1622765135.4,286047001.0,N
1622765155.2,286047002.1,N
1622765175.1,286047002.7,N
1622765176.0,286047002.7,N
1622765195.8,286047004.4,N
1622765215.6,286047004.3,N
1622765235.5,286047001.3,N
1622765255.3,286047002.0,N
1622765275.2,286047001.6,N
1622765295.0,286046998.2,N
1622765295.9,286046998.2,N
1622765315.8,286046997.8,N
1622765335.6,286047001.1,N
1622765355.4,286046998.4,N
1622765375.3,286046996.6,N
1622765395.1,286046998.1,N
1622765415.8,286047002.4,N
1622765435.7,286047000.1,N
1622765455.5,286047001.6,N
1622765475.4,286047002.7,N
1622765495.2,286047003.7,N
1622765515.0,286047004.0,N
1622765515.9,286047004.0,N
1622765535.8,286047001.6,N
1622765555.6,286047000.1,N
1622765575.5,286047003.8,N
1622765595.3,286047003.9,N
1622765615.1,286047002.1,N
1622765635.9,286047003.9,N
1622765655.7,286047003.3,N
1622765675.6,286047002.9,N
1622765695.4,286047003.9,N
1622765715.2,286047005.8,N
1622765735.1,286047004.3,N
1622765736.0,286047004.3,N
1622765755.8,286047003.7,N
1622765775.7,286047003.9,N
1622765795.5,286047005.9,N
1622765815.3,286047003.3,N
1622765835.2,286047003.0,N
1622765855.0,286047004.4,N
1622765855.9,286047004.4,N
1622765875.8,286047004.2,N
1622765895.6,286047005.9,N
1622765915.4,286047007.5,Y
1622765935.3,286047005.8,P
1622765955.1,286047002.7,N
1622765975.8,286046999.8,N
1622765995.7,286047004.0,N
1622766015.5,286047001.7,N
1622766035.4,286047003.7,N
1622766055.2,286047003.3,N
1622766075.0,286047000.4,N
1622766075.9,286047000.4,N
1622766095.8,286047001.8,N
1622766115.6,286047002.5,N
1622766135.4,286047000.9,N
1622766155.3,286047002.7,N
1622766175.1,286047004.1,N
1622766195.9,286047002.1,N
1622766215.7,286047004.1,N
1622766235.5,286047001.8,N
1622766255.4,286046999.7,N
1622766275.2,286047002.1,N
1622766295.0,286047001.6,N
1622766295.9,286047001.6,N
1622766315.8,286047002.3,N
1622766335.6,286047000.1,N
1622766355.5,286047002.1,N
1622766375.3,286047003.5,N
1622766395.1,286047001.8,N
1622766415.9,286047002.3,N
1622766435.7,286047001.1,N
1622766455.5,286047000.9,N
1622766475.4,286047000.6,N
1622766495.2,286047011.9,Y
1622766515.1,286047000.6,P
1622766516.0,286047000.6,N
1622766535.8,286046999.0,N
1622766555.6,286047000.4,N
1622766575.5,286046998.4,N
1622766595.3,286046999.1,N
1622766615.1,286046997.0,N
1622766635.9,286046995.8,N
1622766655.7,286046993.8,Y
1622766675.6,286046993.5,P
1622766695.4,286046993.3,N
1622766715.2,286046997.7,N
1622766735.1,286046997.0,N
1622766736.0,286046997.0,N
1622766755.8,286046996.1,N
1622766775.7,286046995.4,N
1622766795.5,286046997.5,N
1622766815.3,286046995.3,N
1622766835.2,286046996.3,N
1622766855.9,286046995.5,N
1622766875.7,286046997.8,N
1622766895.6,286046997.5,N
1622766915.4,286046996.9,N
1622766935.3,286046999.4,N
1622766955.1,286046998.2,N
1622766956.0,286046998.2,N
1622766975.8,286046998.5,N
1622766995.7,286046999.6,N
1622767015.5,286046999.0,N
1622767035.3,286046996.5,N
1622767055.2,286046996.5,N
1622767075.0,286046999.0,N
1622767075.9,286046999.0,N
1622767095.8,286046998.8,N
1622767115.6,286046994.9,Y
1622767135.4,286046997.0,P
1622767155.3,286046997.4,P
1622767175.1,286046995.7,P
1622767195.8,286046996.7,Y
1622767215.7,286047000.6,P
1622767235.5,286047000.9,N
1622767255.4,286047002.5,N
1622767275.2,286047002.2,N
1622767295.0,286047000.2,N
1622767295.9,286047000.2,N
1622767315.8,286047002.3,N
1622767335.6,286047002.8,N
1622767355.4,286047002.4,N
1622767375.3,286047002.5,N
1622767395.1,286047001.4,N
1622767415.9,286047003.7,N
1622767435.7,286047003.1,N
1622767455.5,286047004.2,N
1622767475.4,286047002.7,N
1622767495.2,286047000.0,N
1622767515.0,286047003.2,N
1622767515.9,286047003.2,N
1622767535.8,286047003.4,N
1622767555.6,286047002.8,N
1622767575.5,286047002.3,N
1622767595.3,286047004.4,N
1622767615.1,286047005.4,Y
1622767635.9,286047005.5,P
1622767655.7,286047005.5,P
1622767675.6,286047005.8,P
1622767695.4,286047003.2,N
1622767716.0,286047004.8,Y
1622767735.8,286046999.7,P
1622767755.6,286046999.6,N
1622767775.5,286046999.2,N
1622767795.3,286047000.7,N
1622767815.2,286046998.1,N
1622767835.9,286046997.0,N
1622767855.7,286046999.6,N
1622767875.6,286046998.2,N
1622767895.4,286047001.0,N
1622767915.2,286046999.4,N
1622767935.1,286046995.0,N
1622767936.0,286046995.0,N
1622767955.8,286046998.0,N
1622767975.7,286046996.6,N
1622767995.5,286046998.9,N
1622768015.3,286046999.2,N
1622768035.2,286046999.1,N
1622768055.0,286046996.6,N
1622768055.9,286046996.6,N
1622768075.7,286046995.1,N
1622768095.6,286046993.4,Y
1622768115.4,286046995.3,P
1622768135.3,286046996.8,N
1622768155.1,286046997.4,N
1622768175.9,286046999.6,N
1622768195.7,286046998.3,N
1622768215.5,286046999.6,N
1622768235.4,286047001.1,N
1622768255.2,286046998.5,N
1622768275.0,286046999.3,N
1622768275.9,286046999.3,N
1622768295.8,286047002.7,N
1622768315.6,286047002.7,N
1622768335.5,286046999.3,N
1622768355.3,286046999.1,N
1622768375.1,286046998.5,N
1622768395.9,286047001.2,N
